STARLINK-32280, 60736

Orbit data source: Space-Track

STARLINK-32280, 60736 is a payload satellite owned by SpaceX/Seattle (US) in LEO that was launched on Wed, 28 Aug 2024 UTC via an FALCON 9 launch vehicle from the Air Force Eastern Test Range (AFETR). Payloads include a variety of satellites, spacecraft, and rockets equipped with specific instruments for various scientific and technological missions. These include communications satellites like Starlink; space stations such as the ISS; scientific satellites like the Hubble; Earth observation satellites from companies like Planet Labs, Umbra, and HawkEye 360; GPS; miniature CubeSats for education and research; and military/defense satellites.

Loading next visibility...
STARLINK-32280 details
Identifier
60736, 2024-152S
Orbit
LEO
Last TLE update9 hours ago
Origin
Flag of USSpaceX/Seattle (US)
ManufacturerSpaceX/Seattle
MissionOperational spacecraft
Bus & MotorSTARLINK V2M, Unknown motor
Mass730 kg wet, ~700 kg dry
Launch date (UTC)
2024-08-28 (5 months ago)
Launch vehicle
FALCON 9
Launch site
Air Force Eastern Test Range (AFETR)
Object type
Payload
Rocket body
Debris
Shape & HBRUnknown
Radar Cross SectionLarge (>1 m²)

Expand to show TLE details & history

TLE from 9 hours ago
0 STARLINK-32280
1 60736U 24152S   25015.10097808  .00001826  00000-0  73770-4 0  9997
2 60736  53.1602  52.6809 0001199  81.8086 278.3051 15.30199568 22717
Epoch: 2025-01-15T02:25Z
Definitive object data (Epoch: 2025-01-15T02:25:24.506Z)
Latitude0.00002°
Longitude-98.46935°
Altitude475.997 km
Speed7.629 km/s
True Right ascension03h 30m 43s
True Declination0° 00' 00"
Sunlit
Object was in full shadow at TLE epoch
Visualization TLE readout
Latitude10.35551°
Longitude-92.4764°
Altitude475.077 km
Speed7.631 km/s
Apparent Right ascension02h 31m 03s
Apparent Declination-15° 04' 44"
Sunlit
Object is in full shadow
Visualization observer readout
Local Sidereal Time12:33:22
Azimuth305.645° NW
Elevation-54.291°
Doppler factor1
Orbital elements
Apogee altitude476.295 km
Perigee altitude474.651 km
Semi-major axis6,853.61 km
Eccentricity0.0001199
Inclination53.1602°
RAAN52.6809°
Arg. of periapsis81.8086°
True anomaly278.2915°
Mean anomaly278.3051°
Eccentric anomaly278.2983°
Mean motion3.82529 °/min
BSTAR0.00007377
Orbital period94.11 mins
Loading maneuver chart data...
Loading historical data...
Loading historical data...
Loading historical data...
Loading historical data...
Loading historical data...
Loading historical data...
Loading historical data...

STARLINK-32280 Visibility forecast

Observer location: undefined°, undefined

Span
Click to sort rows by Start time (UTC) header in descending order
Start Az.
Max El. time (UTC)
Max El. Az.
Max El.
End time (UTC)
End Az.
6 mins2025-01-15 12:20:05.664Z303.718° NW2025-01-15 12:23:05.664Z252.834° W41.077°2025-01-15 12:26:05.664Z144.254° SSE
5 mins2025-01-16 05:17:05.664Z249.273° W2025-01-16 05:19:05.664Z346.052° N41.116°2025-01-16 05:22:05.664Z43.531° NE
4 mins2025-01-16 10:14:05.664Z351.109° N2025-01-16 10:16:05.664Z34.223° NE18.521°2025-01-16 10:18:05.664Z69.44° E
|